Change the Weather History Date:

Friday, September 20, 2013

  Actual Average Record
Temperature  
Mean Temperature 75 °F -  
Max Temperature 85 °F 82 °F 94 °F (2010)
Min Temperature 66 °F 66 °F 57 °F (1996)
Cooling Degree Days 10    
Growing Degree Days 25 (Base 50)    
Moisture  
Dew Point 67 °F    
Average Humidity 77    
Maximum Humidity 98    
Minimum Humidity 55    
Precipitation  
Precipitation 0.00 in - - ()
Sea Level Pressure  
Sea Level Pressure 30.03 in    
Wind  
Wind Speed 3 mph (ENE)    
Max Wind Speed 8 mph    
Max Gust Speed -    
Visibility 10 miles    
Events      
Averages and records for this station are not official NWS values.
T = Trace of Precipitation, MM = Missing Value Source: NWS Daily Summary

Daily Weather History Graph

Daily Weather History Graph

Search for Another Location

Airport or City:

Trip Planner

Search our weather history database for the weather conditions in past years. The results will help you decide how hot, cold, wet, or windy it might be!

Date:

Astronomy

Sep. 20, 2013 Rise Set
Actual Time 7:11 AM EDT 7:23 PM EDT
Civil Twilight 6:47 AM EDT 7:47 PM EDT
Nautical Twilight 6:18 AM EDT 8:16 PM EDT
Astronomical Twilight 5:49 AM EDT 8:45 PM EDT
Moon 8:05 PM EDT (9/20) 8:17 AM EDT (9/20)
Length of Visible Light 13h 00m
Length of Day
12h 11m
Full, 98% of the Moon is Illuminated
Sep 20
Full
Sep 26
Last Quarter
Oct 4
New
Oct 11
First Quarter
Oct 18
Full

Hourly Weather History & Observations

Time (EDT) Temp. Heat Index Dew Point Humidity Pressure Visibility Wind Dir Wind Speed Gust Speed Precip Events Conditions
12:56 AM 68.0 °F - 66.2 °F 94% 30.06 in 10.0 mi Calm Calm - N/A   Clear
1:58 AM 66.7 °F - 65.1 °F 95% 30.06 in 10.0 mi Calm Calm - N/A   Clear
2:58 AM 67.1 °F - 65.7 °F 95% 30.07 in 10.0 mi West 3.5 mph - N/A   Clear
3:58 AM 66.0 °F - 64.9 °F 96% 30.07 in 10.0 mi NW 2.3 mph - N/A   Clear
4:58 AM 66.2 °F - 65.1 °F 96% 30.06 in 10.0 mi West 3.5 mph - N/A   Clear
5:58 AM 68.2 °F - 67.1 °F 96% 30.06 in 10.0 mi Calm Calm - N/A   Clear
6:58 AM 66.4 °F - 65.5 °F 97% 30.07 in 10.0 mi NW 3.5 mph - N/A   Clear
7:58 AM 68.2 °F - 67.6 °F 98% 30.08 in 10.0 mi NNW 2.3 mph - N/A   Clear
8:58 AM 73.8 °F - 69.8 °F 87% 30.08 in 10.0 mi North 2.3 mph - N/A   Clear
9:58 AM 78.6 °F - 70.0 °F 75% 30.09 in 10.0 mi NNW 4.6 mph - N/A   Clear
10:58 AM 81.0 °F 84.1 °F 68.9 °F 67% 30.07 in 10.0 mi Variable 2.3 mph - N/A   Partly Cloudy
11:08 AM 80.6 °F 83.2 °F 68.0 °F 65% 30.06 in 10.0 mi Variable 4.6 mph - N/A   Mostly Cloudy
11:18 AM 80.6 °F 83.2 °F 68.0 °F 65% 30.07 in 10.0 mi Variable 2.3 mph - N/A   Scattered Clouds
11:58 AM 81.9 °F 84.6 °F 67.5 °F 62% 30.06 in 10.0 mi Variable 3.5 mph - N/A   Partly Cloudy
12:58 PM 84.6 °F 87.1 °F 66.7 °F 55% 30.04 in 10.0 mi East 6.9 mph - N/A   Mostly Cloudy
1:58 PM 83.7 °F 86.2 °F 66.7 °F 57% 30.02 in 10.0 mi ENE 8.1 mph - N/A   Mostly Cloudy
2:58 PM 83.1 °F 85.4 °F 66.6 °F 57% 30.00 in 10.0 mi SE 6.9 mph - N/A   Mostly Cloudy
3:58 PM 81.9 °F 84.2 °F 66.6 °F 60% 29.99 in 10.0 mi SE 6.9 mph - N/A   Mostly Cloudy
4:58 PM 82.9 °F 85.6 °F 67.1 °F 59% 29.97 in 10.0 mi ESE 8.1 mph - N/A   Clear
5:58 PM 81.0 °F 83.0 °F 65.8 °F 60% 29.96 in 10.0 mi ESE 8.1 mph - N/A   Clear
6:58 PM 78.4 °F - 66.0 °F 66% 29.96 in 10.0 mi ESE 6.9 mph - N/A   Clear
7:58 PM 75.9 °F - 66.7 °F 73% 29.97 in 10.0 mi SE 4.6 mph - N/A   Clear
8:58 PM 74.3 °F - 67.1 °F 78% 29.97 in 10.0 mi ESE 1.2 mph - N/A   Clear
9:58 PM 73.4 °F - 66.9 °F 80% 29.97 in 10.0 mi SE 3.5 mph - N/A   Clear
10:58 PM 72.0 °F - 66.6 °F 83% 29.97 in 10.0 mi Calm Calm - N/A   Clear
11:58 PM 68.7 °F - 66.2 °F 92% 29.96 in 10.0 mi West 2.3 mph - N/A   Clear